Regional Weather Roundup
Issued by NWS

Home | Current Version | Previous Version | Graphics & Text | Print | Product List | Glossary On
Versions: 1 2 3 4 5 6 7 8 9 10 11 12 13 14 15 16 17 18 19 20 21 22 23 24 25 26 27 28 29 30 31 32 33 34 35 36 37 38 39 40 41 42 43 44 45 46 47 48 49 50
844
ASUS45 KBOU 060407
RWRCO

WEATHER ROUNDUP FOR COLORADO
NATIONAL WEATHER SERVICE DENVER/BOULDER CO
900 PM MST FRI FEB 05 2016

NOTE: "FAIR" INDICATES FEW OR NO CLOUDS BELOW 12000 FEET WITH NO
SIGNIFICANT WEATHER AND/OR OBSTRUCTIONS TO VISIBILITY.

COZ001>005-013-030-031-060500-
...NORTHWEST COLORADO...

CITY           SKY/WX    TMP DP  RH WIND       PRES   REMARKS
CRAIG          CLOUDY    -3  -6  87 W3        30.47S
HAYDEN         CLOUDY     9   3  78 SE9       30.45S WCI  -5
MEEKER         CLOUDY    10   3  73 E3        30.47R
MOUNT WERNER   NOT AVBL
STEAMBOAT SPGS CLOUDY     8   5  89 CALM      30.46R
WALDEN         CLOUDY     9   1  72 SE12      30.38S WCI  -6
$$

COZ006>008-011-060500-
...WEST CENTRAL VALLEYS...

CITY           SKY/WX    TMP DP  RH WIND       PRES   REMARKS
GRAND JUNCTION CLOUDY     8   6  92 E5        30.56S WCI   0
MONTROSE       CLOUDY    11   4  73 SE8       30.55R WCI  -1
EAGLE          CLEAR     10   7  85 SE5       30.52R WCI   2
RIFLE          CLOUDY    11   4  73 SE6       30.54R WCI   1
DELTA          CLOUDY    20  15  81 CALM      30.57R
NUCLA          CLOUDY    18  10  73 SE9       30.53R WCI   6
$$

COZ017>023-064>068-060500-
...SOUTHWEST COLORADO...

CITY           SKY/WX    TMP DP  RH WIND       PRES   REMARKS
DURANGO        CLOUDY    14   8  77 E3        30.41R
CORTEZ         CLOUDY    11   6  81 E7        30.47R WCI   0
PAGOSA SPRINGS CLOUDY     9   7  92 CALM      30.40S
TELLURIDE      CLOUDY    12   2  63 CALM      30.44R
WOLF CREEK PAS CLOUDY    12 -13  31 N21G28    30.34S WCI  -6
$$

COZ009-010-012-014-032>034-037-058>063-060500-
...CENTRAL COLORADO...

CITY           SKY/WX    TMP DP  RH WIND       PRES   REMARKS
ASPEN          CLOUDY     4  -2  76 SW9       30.45R WCI -10
BUENA VISTA    CLOUDY    18   5  56 NW30G38   30.32R WCI  -1
COPPER MTN     CLOUDY     5   0  78 W10       30.31R WCI -10
BERTHOUD PASS  FAIR      -2 -13  60 NW22G32   30.25R WCI -26
COTTONWOOD PAS CLOUDY    19  -4  35 W15G28    30.29R WCI   5
GUNNISON       CLOUDY    -8  -8 100 CALM      30.50R
KREMMLING      CLOUDY    -6  -9  84 CALM      30.49R
LEADVILLE      CLOUDY     2  -2  83 N8        30.34R WCI -12
MONARCH PASS   CLOUDY     3   0  85 MISG      30.38R
SALIDA         NOT AVBL
SUNLIGHT       CLOUDY   N/A N/A N/A CALM        N/A
WILKERSON PASS CLOUDY    12  -6  44 N12G24    30.26R WCI  -2
$$

COZ069>075-060500-
...SAN LUIS VALLEY/SANGRE DE CRISTO MOUNTAINS...

CITY           SKY/WX    TMP DP  RH WIND       PRES   REMARKS
ALAMOSA        CLOUDY     1  -3  83 SE3       30.37R
LA VETA PASS   CLOUDY     9   1  72 MISG      30.25R
SAGUACHE       CLOUDY    16   5  62 NW17      30.39R WCI   0
$$

COZ035-036-038>040-060500-
...NORTHERN COLORADO FRONT RANGE...

CITY           SKY/WX    TMP DP  RH WIND       PRES   REMARKS
DENVER INTL AP CLOUDY    15   4  61 S15       30.27S WCI   0
DMNS CITY PARK   N/A     24  10  57 SE9       30.27F WCI  14
AURORA         CLEAR     19   7  60 S10       30.28R WCI   7
FRONT RANGE AP PTCLDY    12   3  67 S12       30.28S WCI  -2
ERIE MUNI ARPT CLOUDY    13   9  83 CALM      30.28S
BOULDER MUN AP CLOUDY    27  14  59 CALM      30.27S
CENTENNIAL     CLOUDY    16   5  62 SE3       30.27R
BROOMFIELD     CLEAR     27  12  54 CALM      30.27S
FORT COLLINS   CLOUDY    23  12  63 SW5       30.29S WCI  17
LONGMONT       CLOUDY    17  10  74 CALM      30.30S
$$

COZ041-046-047-076>085-087-088-060500-
...PIKES PEAK/PALMER DIVIDE AND SOUTHERN FOOTHILLS...

CITY           SKY/WX    TMP DP  RH WIND       PRES   REMARKS
COLO. SPRINGS  CLOUDY    12   3  67 N6        30.31R WCI   3
A. F. ACADEMY  CLOUDY     6   1  76 N8        30.29R WCI  -6
SCHRIEVER AFB  FAIR      15   8  76 W7        30.31R WCI   5
ELLICOTT       NOT AVBL
FALCON         CLOUDY    13   4  65 W8        30.30R WCI   2
FORT CARSON    CLOUDY    30  14  51 SE6       30.25S WCI  24
LIMON          CLOUDY    12   4  70 NW6       30.31R WCI   3
MONUMENT HILL  CLOUDY    18   5  57 SW13      30.28R WCI   4
TRINIDAD       CLEAR     17  11  77 W8        30.32R WCI   7
$$

COZ042>045-048>051-090-091-060500-
...NORTHEAST COLORADO...

CITY           SKY/WX    TMP DP  RH WIND       PRES   REMARKS
GREELEY ARPT   CLOUDY     9   3  78 CALM      30.30S
AKRON          CLOUDY    20  11  68 W12       30.27S WCI   8
BURLINGTON     CLEAR     15   7  70 W13       30.29R WCI   1
WRAY           CLEAR     20  13  75 W6        30.29S WCI  13
STERLING       CLOUDY    19  12  73 W6        30.28S WCI  11
HOLYOKE        CLEAR     28  16  59 NW14G21   30.27S WCI  17
FORT MORGAN    CLOUDY    15   9  76 W7        30.30S WCI   5
$$

COZ086-089-092>099-060500-
...SOUTHEAST COLORADO...

CITY           SKY/WX    TMP DP  RH WIND       PRES   REMARKS
PUEBLO         CLOUDY    19  12  74 CALM      30.34R
LA JUNTA       CLEAR     22  14  71 W9        30.34R WCI  12
LAMAR          CLEAR     24  19  81 W8        30.32R WCI  15
SPRINGFIELD      N/A     20  15  81 W10       30.32R WCI   9
$$




USA.gov is the U.S. government's official web portal to all federal, state and local government web resources and services.